{"data":{"norad_id":65928,"epoch":"2026-05-25T02:10:50.169216Z","epoch_age_seconds":70355,"freshness":"FRESH","line1":"1 65928U 25225U   26145.09085844  .00017044  00000+0  58618-3 0  9998","line2":"2 65928  53.1570 170.9304 0001125  79.7935 280.3193 15.30204309 36109","mean_motion":15.30204309,"eccentricity":0.0001125,"inclination_deg":53.157,"raan_deg":170.9304,"arg_perigee_deg":79.7935,"mean_anomaly_deg":280.3193,"bstar":0.00058618,"rev_number":3610,"period_min":94.105080709193,"perigee_km":474.43120289182,"apogee_km":475.97320421262,"semimajor_km":6853.3392035522,"source":"CELESTRAK","updated_at":"2026-05-25T13:38:20.990031Z"}}